This demonstration page uses our WeatherBlox Daily Observations layout. Learn more.

Left ArrowRight Arrow

31.31129, -92.44514

Hourly Observations for October 11, 2015

Temp ( °F °C ) Dew Point ( °F °C ) Humidity (%) Winds ( mph kmh ) Pressure ( in mb ) Visibility ( mi km ) Precip ( " mm )
12:53 am 00:53 Clear 56 13.3 49 9.4 77 77 Calm 30.07 1018 10 16 0.00 0.00
1:53 am 01:53 Clear 55 12.8 53 11.7 93 93 Calm 30.06 1018 7 11 0.00 0.00
2:53 am 02:53 Clear 51 10.6 48 8.9 89 89 Calm 30.05 1018 8 13 0.00 0.00
3:53 am 03:53 Clear with Mist and Fog 52 11.1 50 10 93 93 Calm 30.04 1017 6 10 0.00 0.00
4:37 am 04:37 Partly Cloudy 50 10 47 8.3 89 89 Calm 30.03 1017 7 11 0.00 0.00
4:53 am 04:53 Mostly Cloudy 51 10.6 49 9.4 92 92 Calm 30.03 1017 7 11 0.00 0.00
5:02 am 05:02 Mostly Cloudy with Mist and Fog 51 10.6 50 10 96 96 Calm 30.03 1017 1 2 0.00 0.00
5:14 am 05:14 Mostly Cloudy with Fog 52 11.1 51 10.6 97 97 Calm 30.03 1017 1 1 0.00 0.00
5:20 am 05:20 Mostly Cloudy with Mist and Fog 52 11.1 51 10.6 97 97 Calm 30.03 1017 2 3 0.00 0.00
5:23 am 05:23 Partly Cloudy with Mist and Fog 52 11.1 51 10.6 97 97 Calm 30.03 1017 3 5 0.00 0.00
5:48 am 05:48 Clear with Mist and Fog 50 10 50 10 100 100 Calm 30.03 1017 2 3 0.00 0.00
5:53 am 05:53 Clear with Mist and Fog 50 10 50 10 100 100 Calm 30.03 1017 2 2 0.00 0.00
5:59 am 05:59 Clear with Mist and Fog 50 10 50 10 100 100 Calm 30.03 1017 3 5 0.00 0.00
6:08 am 06:08 Clear with Mist and Fog 48 8.9 48 8.9 100 100 Calm 30.03 1017 1 2 0.00 0.00
6:12 am 06:12 Mostly Clear with Mist and Fog 49 9.4 47 8.3 93 93 Calm 30.03 1017 2 3 0.00 0.00
6:20 am 06:20 Mostly Clear with Mist and Fog 50 10 48 8.9 93 93 Calm 30.03 1017 5 8 0.00 0.00
6:50 am 06:50 Mostly Cloudy with Mist and Fog 48 9 46 8 94 94 Calm 30.03 1017 3 4 0.00 0.00
6:53 am 06:53 Mostly Cloudy with Mist and Fog 48 8.9 47 8.3 96 96 Calm 30.04 1017 2 3 0.00 0.00
7:07 am 07:07 Mostly Cloudy with Fog 47 8.3 47 8.3 100 100 Calm 30.03 1017 0 0 0.00 0.00
7:21 am 07:21 Mostly Cloudy with Fog 49 9.4 49 9.4 100 100 Calm 30.03 1017 5 8 0.00 0.00
7:53 am 07:53 Mostly Cloudy with Fog 51 10.6 51 10.6 100 100 Calm 30.05 1018 5 8 0.00 0.00
8:15 am 08:15 Mostly Cloudy with Fog 52 11.1 52 11.1 100 100 Calm 30.03 1017 1 1 0.00 0.00
8:23 am 08:23 Mostly Cloudy with Mist and Fog 53 11.7 53 11.7 100 100 Calm 30.06 1018 2 3 0.00 0.00
8:31 am 08:31 Partly Cloudy with Mist and Fog 54 12.2 54 12.2 100 100 Calm 30.06 1018 2 3 0.00 0.00
8:53 am 08:53 Sunny with Mist and Fog 57 13.9 55 12.8 93 93 Calm 30.07 1018 2 3 0.00 0.00
9:03 am 09:03 Sunny with Mist and Fog 58 14.4 55 12.8 90 90 Calm 30.06 1018 3 4 0.00 0.00
9:10 am 09:10 Hazy 60 15.6 55 12.8 84 84 Calm 30.06 1018 3 5 0.00 0.00
9:53 am 09:53 Hazy 66 18.9 57 13.9 73 73 Calm 30.08 1019 6 10 0.00 0.00
10:53 am 10:53 Sunny 71 21.7 57 13.9 61 61 ESE 5 7 30.07 1018 9 14 0.00 0.00
11:53 am 11:53 Sunny 75 23.9 55 12.8 50 50 VRB 3 6 30.04 1017 10 16 0.00 0.00
12:53 pm 12:53 Sunny 79 26.1 52 11.1 39 39 VRB 3 6 30.01 1016 10 16 0.00 0.00
1:53 pm 13:53 Sunny 79 26.1 52 11.1 39 39 Calm 29.98 1015 10 16 0.00 0.00
2:53 pm 14:53 Sunny 81 27.2 49 9.4 33 33 S 6 9 29.94 1014 10 16 0.00 0.00
3:53 pm 15:53 Sunny 84 28.9 47 8.3 27 27 VRB 5 7 29.91 1013 10 16 0.00 0.00
4:53 pm 16:53 Sunny 83 28.3 50 10 32 32 VRB 7 11 29.90 1012 10 16 0.00 0.00
5:53 pm 17:53 Sunny 81 27.2 50 10 34 34 SSE 6 9 29.88 1012 10 16 0.00 0.00
6:53 pm 18:53 Clear 75 23.9 52 11.1 45 45 ESE 5 7 29.88 1012 10 16 0.00 0.00
7:53 pm 19:53 Clear 70 21.1 53 11.7 55 55 SSE 6 9 29.88 1012 10 16 0.00 0.00
8:53 pm 20:53 Clear 68 20 53 11.7 59 59 SSE 3 6 29.90 1012 10 16 0.00 0.00
9:53 pm 21:53 Clear 65 18.3 55 12.8 70 70 SE 6 9 29.90 1013 10 16 0.00 0.00
10:53 pm 22:53 Clear 63 17.2 55 12.8 76 76 S 3 6 29.91 1013 10 16 0.00 0.00
11:53 pm 23:53 Clear 68 20 58 14.4 70 70 SW 7 11 29.90 1013 10 16 0.00 0.00

Powered by AerisWeather